Location: Home
(42.5358°N, 72.7383°W)
Time: 19:18:07
(UTC-05:00)

Transit 4A - Pass Details

Date: 04 December 2021
Orbit: 863 x 981 km, 66.8° (Epoch: 23 January)

Event Time Altitude Azimuth Distance (km) Brightness Sun altitude
Rises 18:28:56 0° 196° (SSW) 3,439 11.2 -23.4°
Reaches altitude 10° 18:31:25 10° 193° (SSW) 2,515 10.4 -23.9°
Maximum altitude 18:37:06 59° 115° (ESE) 1,019 7.8 -24.9°
Enters shadow 18:37:13 59° 109° (ESE) 1,021 7.8 -24.9°
Drops below altitude 10° 18:42:59 10° 37° (NE) 2,596 - -26.0°
Sets 18:45:34 0° 34° (NE) 3,560 - -26.4°
